This is the latest recevied weather packets stored in our database for station/object KF4ERV-4. If no packets are shown the sender has not sent any weather packets the latest 10 day(s).
| Time | Temp. | Humidity | Pressure | Rain* | Wind** | Luminosity | Snow |
|---|---|---|---|---|---|---|---|
| 1777816755 | 10.56° C | 81% | 1022 hPa | 0 mm | - | - | - |
| 1777816604 | 10° C | 86% | 1022 hPa | 0 mm | - | - | - |
| 1777816465 | 10° C | 86% | 1022 hPa | 0 mm | - | - | - |
| 1777816186 | 10° C | 86% | 1022 hPa | 0 mm | - | - | - |
| 1777815886 | 9.44° C | 89% | 1022 hPa | 0 mm | - | - | - |
| 1777815592 | 8.89° C | 88% | 1022 hPa | 0 mm | - | - | - |
| 1777815284 | 8.89° C | 86% | 1022 hPa | 0 mm | - | - | - |
| 1777814988 | 8.89° C | 85% | 1022 hPa | 0 mm | - | - | - |
| 1777814876 | 7.78° C | 84% | 1022 hPa | 0 mm | - | - | - |
| 1777814726 | 8.33° C | 83% | 1022 hPa | 0 mm | - | - | - |
| 1777814694 | 8.33° C | 83% | 1022 hPa | 0 mm | - | - | - |
| 1777814393 | 8.33° C | 82% | 1022 hPa | 0 mm | - | - | - |
| 1777814145 | 7.78° C | 84% | 1022 hPa | 0 mm | - | - | - |
| 1777814086 | 7.78° C | 84% | 1022 hPa | 0 mm | - | - | - |
| 1777813855 | 7.78° C | 79% | 1022 hPa | 0 mm | - | - | - |
| 1777813788 | 7.78° C | 79% | 1022 hPa | 0 mm | - | - | - |
| 1777813723 | 7.22° C | 73% | 1021.9 hPa | 0 mm | - | - | - |
| 1777813565 | 7.78° C | 71% | 1021.9 hPa | 0 mm | - | - | - |
| 1777813491 | 7.78° C | 71% | 1021.9 hPa | 0 mm | - | - | - |
| 1777813276 | 7.22° C | 73% | 1021.9 hPa | 0 mm | - | - | - |
| 1777813188 | 7.22° C | 73% | 1021.9 hPa | 0 mm | - | - | - |
| 1777813139 | 6.67° C | 59% | 1021.8 hPa | 0 mm | - | - | - |
| 1777813046 | 6.67° C | 59% | 1021.8 hPa | 0 mm | - | - | - |
| 1777812986 | 6.67° C | 64% | 1022 hPa | 0 mm | - | - | - |
| 1777812886 | 6.67° C | 64% | 1022 hPa | 0 mm | - | - | - |
* Rain latest hour (hover to see other rain measurements)
** Current wind speed in m/s (hover to see current wind gust speed)